timestamp,wind_dir_avg,wind_spd_max_dir,wind_spd_avg,wind_spd_gust,battery_voltage,lat,long
2017-09-01 00:00:00+00:00,66.0,71.0,14.05,15.96,12.6,47.59359,-54.27349
2017-09-01 00:10:00+00:00,64.0,62.0,12.23,13.79,12.6,47.59359,-54.27349
2017-09-01 00:20:00+00:00,68.0,61.0,12.9,15.92,12.6,47.59359,-54.27349
2017-09-01 00:30:00+00:00,67.0,67.0,14.47,16.36,12.6,47.59359,-54.27349
2017-09-01 00:40:00+00:00,67.0,69.0,13.48,15.14,12.6,47.59359,-54.27349
2017-09-01 00:50:00+00:00,65.0,65.0,12.53,14.52,12.6,47.59359,-54.27349
2017-09-01 01:00:00+00:00,61.0,59.0,11.37,13.86,12.6,47.59359,-54.27349
2017-09-01 01:10:00+00:00,62.0,60.0,13.09,14.56,12.6,47.59359,-54.27349
2017-09-01 01:20:00+00:00,57.0,57.0,13.27,15.35,12.6,47.59359,-54.27349
2017-09-01 01:30:00+00:00,54.0,51.0,12.95,14.23,12.6,47.59359,-54.27349
2017-09-01 01:40:00+00:00,59.0,52.0,12.04,14.05,12.6,47.59359,-54.27349
2017-09-01 01:50:00+00:00,55.0,54.0,12.45,13.85,12.6,47.59359,-54.27349
2017-09-01 02:00:00+00:00,57.0,57.0,12.12,13.47,12.6,47.59359,-54.27349
2017-09-01 02:10:00+00:00,54.0,52.0,12.91,14.21,12.6,47.59359,-54.27349
2017-09-01 02:20:00+00:00,58.0,57.0,11.85,13.36,12.6,47.59359,-54.27349
2017-09-01 02:30:00+00:00,58.0,52.0,11.9,13.94,12.6,47.59359,-54.27349
2017-09-01 02:40:00+00:00,57.0,55.0,12.42,14.29,12.6,47.59359,-54.27349
2017-09-01 02:50:00+00:00,56.0,53.0,13.17,14.73,12.6,47.59359,-54.27349
2017-09-01 03:00:00+00:00,56.0,60.0,13.28,15.08,12.6,47.59359,-54.27349
2017-09-01 03:10:00+00:00,59.0,59.0,13.77,15.33,12.6,47.59359,-54.27349
2017-09-01 03:20:00+00:00,52.0,53.0,11.54,13.13,12.6,47.59359,-54.27349
2017-09-01 03:30:00+00:00,57.0,62.0,11.56,13.37,12.6,47.59359,-54.27349
2017-09-01 03:40:00+00:00,55.0,56.0,10.84,11.63,12.6,47.59359,-54.27349
2017-09-01 03:50:00+00:00,53.0,48.0,10.48,12.84,12.6,47.59359,-54.27349
2017-09-01 04:00:00+00:00,55.0,56.0,10.83,12.03,12.6,47.59359,-54.27349
2017-09-01 04:10:00+00:00,51.0,49.0,10.81,13.43,12.6,47.59359,-54.27349
2017-09-01 04:20:00+00:00,48.0,44.0,11.19,12.6,12.6,47.59359,-54.27349
2017-09-01 04:30:00+00:00,47.0,48.0,12.36,13.55,12.6,47.59359,-54.27349
2017-09-01 04:40:00+00:00,50.0,51.0,9.84,11.11,12.6,47.59359,-54.27349
2017-09-01 04:50:00+00:00,50.0,40.0,11.7,13.42,12.6,47.59359,-54.27349
2017-09-01 05:00:00+00:00,40.0,38.0,9.53,10.8,12.6,47.59359,-54.27349
2017-09-01 05:10:00+00:00,39.0,41.0,10.56,12.08,12.6,47.59359,-54.27349
2017-09-01 05:20:00+00:00,43.0,39.0,9.66,11.44,12.6,47.59359,-54.27349
2017-09-01 05:30:00+00:00,41.0,41.0,8.91,10.25,12.6,47.59359,-54.27349
2017-09-01 05:40:00+00:00,37.0,42.0,10.26,11.73,12.6,47.59359,-54.27349
2017-09-01 05:50:00+00:00,37.0,40.0,11.45,12.77,12.6,47.59359,-54.27349
2017-09-01 06:00:00+00:00,35.0,31.0,11.4,12.67,12.6,47.59359,-54.27349
2017-09-01 06:10:00+00:00,36.0,35.0,10.36,11.81,12.6,47.59359,-54.27349
2017-09-01 06:20:00+00:00,36.0,35.0,9.64,10.7,12.6,47.59359,-54.27349
2017-09-01 06:30:00+00:00,25.0,28.0,7.12,9.05,12.6,47.59359,-54.27349
2017-09-01 06:40:00+00:00,16.0,20.0,7.21,8.18,12.6,47.59359,-54.27349
2017-09-01 06:50:00+00:00,20.0,16.0,8.2,10.36,12.6,47.59359,-54.27349
2017-09-01 07:00:00+00:00,20.0,17.0,6.88,8.98,12.6,47.59359,-54.27349
2017-09-01 07:10:00+00:00,17.0,15.0,9.54,11.04,12.6,47.59359,-54.27349
2017-09-01 07:20:00+00:00,14.0,9.0,9.24,11.3,12.6,47.59359,-54.27349
2017-09-01 07:30:00+00:00,13.0,15.0,11.05,12.18,12.6,47.59359,-54.27349
2017-09-01 07:40:00+00:00,21.0,24.0,9.18,10.59,12.6,47.59359,-54.27349
2017-09-01 07:50:00+00:00,16.0,18.0,7.95,9.7,12.6,47.59359,-54.27349
2017-09-01 08:00:00+00:00,14.0,12.0,9.05,10.75,12.6,47.59359,-54.27349
2017-09-01 08:10:00+00:00,9.0,7.0,7.87,9.11,12.6,47.59359,-54.27349
2017-09-01 08:20:00+00:00,10.0,6.0,8.86,10.15,12.6,47.59359,-54.27349
2017-09-01 08:30:00+00:00,3.0,2.0,7.7,8.71,12.6,47.59359,-54.27349
2017-09-01 08:40:00+00:00,5.0,6.0,6.3,7.8,12.6,47.59359,-54.27349
2017-09-01 08:50:00+00:00,356.0,353.0,5.3,6.14,12.6,47.59359,-54.27349
2017-09-01 09:00:00+00:00,1.0,352.0,6.83,8.3,12.6,47.59359,-54.27349
2017-09-01 09:10:00+00:00,6.0,5.0,7.39,8.33,12.6,47.59359,-54.27349
2017-09-01 09:20:00+00:00,9.0,14.0,6.76,7.64,12.6,47.59359,-54.27349
2017-09-01 09:30:00+00:00,359.0,0.0,6.96,7.92,12.6,47.59359,-54.27349
2017-09-01 09:40:00+00:00,340.0,339.0,6.05,7.25,12.6,47.59359,-54.27349
2017-09-01 09:50:00+00:00,3.0,359.0,6.7,8.18,12.6,47.59359,-54.27349
2017-09-01 10:00:00+00:00,347.0,347.0,6.91,7.93,12.6,47.59359,-54.27349
2017-09-01 10:10:00+00:00,2.0,359.0,7.51,8.49,12.6,47.59359,-54.27349
2017-09-01 10:20:00+00:00,357.0,5.0,8.2,9.29,12.6,47.59359,-54.27349
2017-09-01 10:30:00+00:00,4.0,6.0,7.38,8.16,12.6,47.59359,-54.27349
2017-09-01 10:40:00+00:00,355.0,2.0,6.71,7.64,12.7,47.59359,-54.27349
2017-09-01 10:50:00+00:00,345.0,348.0,5.43,5.92,12.7,47.59359,-54.27349
2017-09-01 11:00:00+00:00,346.0,347.0,5.96,7.33,12.6,47.59359,-54.27349
2017-09-01 11:10:00+00:00,348.0,345.0,7.11,7.92,12.6,47.59359,-54.27349
2017-09-01 11:20:00+00:00,350.0,352.0,7.09,7.65,12.8,47.59359,-54.27349
2017-09-01 11:30:00+00:00,1.0,7.0,6.57,7.45,12.9,47.59359,-54.27349
2017-09-01 11:40:00+00:00,350.0,351.0,6.36,7.52,13.0,47.59359,-54.27349
2017-09-01 11:50:00+00:00,354.0,350.0,4.17,4.95,13.0,47.59359,-54.27349
2017-09-01 12:00:00+00:00,354.0,354.0,3.62,4.26,13.0,47.59359,-54.27349
2017-09-01 12:10:00+00:00,340.0,339.0,4.86,5.36,13.0,47.59359,-54.27349
2017-09-01 12:20:00+00:00,335.0,348.0,4.12,5.55,13.0,47.59359,-54.27349
2017-09-01 12:30:00+00:00,322.0,319.0,4.43,5.44,13.1,47.59359,-54.27349
2017-09-01 12:40:00+00:00,316.0,311.0,3.95,4.55,13.2,47.59359,-54.27349
2017-09-01 12:50:00+00:00,322.0,321.0,4.82,5.59,13.4,47.59359,-54.27349
2017-09-01 13:00:00+00:00,322.0,326.0,5.15,5.84,13.6,47.59359,-54.27349
2017-09-01 13:10:00+00:00,336.0,339.0,5.43,6.33,13.3,47.59359,-54.27349
2017-09-01 13:20:00+00:00,315.0,310.0,4.09,4.58,13.4,47.59359,-54.27349
2017-09-01 13:30:00+00:00,311.0,310.0,4.36,4.97,13.5,47.59359,-54.27349
2017-09-01 13:40:00+00:00,311.0,312.0,6.64,8.12,13.4,47.59359,-54.27349
2017-09-01 13:50:00+00:00,316.0,318.0,4.91,5.68,13.8,47.59359,-54.27349
2017-09-01 14:00:00+00:00,305.0,303.0,4.66,5.38,13.8,47.59359,-54.27349
2017-09-01 14:10:00+00:00,316.0,317.0,7.33,8.09,13.7,47.59359,-54.27349
2017-09-01 14:20:00+00:00,315.0,318.0,5.6,6.53,13.4,47.59359,-54.27349
2017-09-01 14:30:00+00:00,298.0,297.0,5.52,6.69,13.4,47.59359,-54.27349
2017-09-01 14:40:00+00:00,297.0,297.0,4.68,5.33,13.8,47.59359,-54.27349
2017-09-01 14:50:00+00:00,294.0,297.0,4.85,5.65,13.4,47.59359,-54.27349
2017-09-01 15:00:00+00:00,301.0,297.0,6.54,7.41,13.6,47.59359,-54.27349
2017-09-01 15:10:00+00:00,297.0,299.0,6.85,7.57,13.4,47.59359,-54.27349
2017-09-01 15:20:00+00:00,299.0,301.0,6.39,6.92,13.6,47.59359,-54.27349
2017-09-01 15:30:00+00:00,278.0,283.0,5.27,5.76,13.8,47.59359,-54.27349
2017-09-01 15:40:00+00:00,311.0,308.0,4.42,4.91,13.5,47.59359,-54.27349
2017-09-01 15:50:00+00:00,265.0,269.0,5.46,7.22,13.4,47.59359,-54.27349
2017-09-01 16:00:00+00:00,290.0,286.0,6.35,7.39,13.3,47.59359,-54.27349
2017-09-01 16:10:00+00:00,268.0,267.0,7.37,8.31,13.3,47.59359,-54.27349
2017-09-01 16:20:00+00:00,292.0,291.0,6.7,7.43,13.7,47.59359,-54.27349
2017-09-01 16:30:00+00:00,283.0,282.0,5.97,6.98,13.7,47.59359,-54.27349
2017-09-01 16:40:00+00:00,294.0,296.0,6.23,7.28,13.8,47.59359,-54.27349
2017-09-01 16:50:00+00:00,298.0,301.0,4.53,5.6,13.8,47.59359,-54.27349
2017-09-01 17:00:00+00:00,286.0,290.0,6.01,6.33,13.8,47.59359,-54.27349
2017-09-01 17:10:00+00:00,284.0,286.0,6.94,8.09,14.1,47.59359,-54.27349
2017-09-01 17:20:00+00:00,287.0,284.0,5.4,6.46,13.7,47.59359,-54.27349
2017-09-01 17:30:00+00:00,289.0,288.0,5.78,6.27,14.0,47.59359,-54.27349
2017-09-01 17:40:00+00:00,277.0,276.0,6.96,7.99,14.2,47.59359,-54.27349
2017-09-01 17:50:00+00:00,271.0,272.0,5.65,6.07,14.2,47.59359,-54.27349
2017-09-01 18:00:00+00:00,266.0,276.0,4.76,5.45,14.0,47.59359,-54.27349
2017-09-01 18:10:00+00:00,277.0,277.0,5.89,6.61,13.9,47.59359,-54.27349
2017-09-01 18:20:00+00:00,276.0,277.0,5.08,5.46,14.0,47.59359,-54.27349
2017-09-01 18:30:00+00:00,278.0,280.0,4.74,5.2,13.9,47.59359,-54.27349
2017-09-01 18:40:00+00:00,284.0,285.0,5.34,6.78,13.9,47.59359,-54.27349
2017-09-01 18:50:00+00:00,232.0,224.0,3.9,4.74,13.8,47.59359,-54.27349
2017-09-01 19:00:00+00:00,221.0,221.0,7.31,8.05,13.8,47.59359,-54.27349
2017-09-01 19:10:00+00:00,223.0,230.0,7.48,8.52,13.7,47.59359,-54.27349
2017-09-01 19:20:00+00:00,224.0,221.0,8.16,9.23,13.7,47.59359,-54.27349
2017-09-01 19:30:00+00:00,221.0,224.0,7.99,8.67,13.7,47.59359,-54.27349
2017-09-01 19:40:00+00:00,216.0,220.0,7.21,7.99,13.6,47.59359,-54.27349
2017-09-01 19:50:00+00:00,224.0,225.0,7.7,8.8,13.4,47.59359,-54.27349
2017-09-01 20:00:00+00:00,218.0,224.0,7.77,8.69,13.4,47.59359,-54.27349
2017-09-01 20:10:00+00:00,220.0,223.0,9.24,10.54,13.3,47.59359,-54.27349
2017-09-01 20:20:00+00:00,227.0,228.0,10.98,11.9,13.3,47.59359,-54.27349
2017-09-01 20:30:00+00:00,226.0,229.0,8.99,10.25,13.3,47.59359,-54.27349
2017-09-01 20:40:00+00:00,219.0,219.0,8.49,9.34,13.4,47.59359,-54.27349
2017-09-01 20:50:00+00:00,221.0,223.0,8.3,9.92,13.3,47.59359,-54.27349
2017-09-01 21:00:00+00:00,224.0,231.0,7.86,9.47,13.2,47.59359,-54.27349
2017-09-01 21:10:00+00:00,224.0,221.0,8.4,9.74,13.0,47.59359,-54.27349
2017-09-01 21:20:00+00:00,225.0,224.0,8.46,9.48,13.1,47.59359,-54.27349
2017-09-01 21:30:00+00:00,226.0,228.0,8.24,9.51,13.0,47.59359,-54.27349
2017-09-01 21:40:00+00:00,220.0,220.0,8.24,9.15,13.0,47.59359,-54.27349
2017-09-01 21:50:00+00:00,227.0,227.0,8.39,9.84,13.0,47.59359,-54.27349
2017-09-01 22:00:00+00:00,225.0,230.0,7.72,8.6,12.9,47.59359,-54.27349
2017-09-01 22:10:00+00:00,220.0,219.0,6.75,7.86,12.8,47.59359,-54.27349
2017-09-01 22:20:00+00:00,224.0,224.0,7.11,7.94,12.8,47.59359,-54.27349
2017-09-01 22:30:00+00:00,221.0,222.0,6.5,7.25,12.8,47.59359,-54.27349
2017-09-01 22:40:00+00:00,230.0,238.0,6.05,7.69,12.8,47.59359,-54.27349
2017-09-01 22:50:00+00:00,249.0,258.0,6.72,8.94,12.8,47.59359,-54.27349
2017-09-01 23:00:00+00:00,268.0,268.0,8.34,9.53,12.8,47.59359,-54.27349
2017-09-01 23:10:00+00:00,277.0,275.0,7.71,8.78,12.7,47.59359,-54.27349
2017-09-01 23:20:00+00:00,264.0,262.0,6.69,7.52,12.8,47.59359,-54.27349
2017-09-01 23:30:00+00:00,260.0,257.0,7.44,8.25,12.8,47.59359,-54.27349
2017-09-01 23:40:00+00:00,257.0,261.0,8.5,9.84,12.8,47.59359,-54.27349
2017-09-01 23:50:00+00:00,259.0,254.0,7.8,9.27,12.8,47.59359,-54.27349
